Location: Braden Valley Church
(38.0012°N, 88.6106°W)
Time: 02:19:14
(UTC+00:00)

Meteor 2-6 Rocket - Pass Details

Date: 08 December 2021
Orbit: 805 x 915 km, 81.3° (Epoch: 21 January)

Event Time Altitude Azimuth Distance (km) Brightness Sun altitude
Rises 23:42:35 0° 190° (S) 3,476 7.8 -13.1°
Reaches altitude 10° 23:45:03 10° 191° (S) 2,525 7.1 -13.5°
Maximum altitude 23:50:48 81° 279° (W) 876 4.3 -14.6°
Drops below altitude 10° 23:56:25 10° 7° (N) 2,466 6.4 -15.6°
Sets 23:58:48 0° 8° (N) 3,389 7.1 -16.1°
